Vertical_Velocity
1 3 2 -3 -2 -0 3 -5 0 -1 2 -0 -0 1 0 0 -3 2 -0 -0 0 4 1 6 1 2 1 1 -1 -0 -1 2 0
0 1 -2 -1 0 -3 -2 1 -4 0 -1 2 1 2 1 -1 -2 1 -0 -0 1 4 5 2 0 2 1 1 3 0 -1 1 1
1 -1 -0 -3 3 1 0 -1 6 3 -1 1 3 2 2 -1 4 -0 2 2 2 2 6 -2 0 1 1 -0 -0 1 0 1 2
0 -0 -0 2 2 0 -1 -1 2 5 -0 0 1 2 1 -1 -1 2 2 1 2 0 1 -1 -0 -0 2 2 -0 -0 0 0 1
2 -1 2 -2 1 1 0 0 0 -2 -2 2 -1 1 2 -1 3 2 3 -0 0 -0 2 1 0 -1 -1 1 1 2 -2 1 2
-0 6 -2 1 -0 1 -2 1 2 1 1 1 0 8 0 -2 -1 6 5 3 0 0 -2 0 1 2 -0 -1 -1 2 -0 -1 0
-2 -1 0 5 -4 -1 0 0 13 -1 -1 -2 -1 -1 1 7 3 4 -1 1 2 1 0 1 1 2 1 1 0 1 -0 0 2
-2 -1 2 0 2 4 0 -3 -3 19 -0 -1 3 0 3 1 1 3 5 1 4 4 3 1 2 2 3 1 3 1 0 2 0
-2 0 1 -0 -1 -2 -1 3 0 19 14 3 7 3 0 1 -0 -0 1 -4 2 2 0 2 1 -0 3 2 3 2 4 3 -0
-2 -0 1 0 0 -1 1 -1 4 5 6 4 2 3 2 4 2 0 10 7 -2 -1 3 -2 2 1 1 3 2 3 -1 2 2
2 -1 -1 -0 2 4 1 3 4 2 -0 -3 -0 -1 6 6 11 9 8 1 2 3 3 2 -2 0 0 1 -0 -0 -1 1 0
1 3 1 -0 -2 0 -3 5 5 13 -2 -1 2 -0 4 -2 8 -10 82 9 4 13 7 -1 2 -1 1 1 -1 -1 -1 -1 -0
-1 -2 2 1 1 -1 -2 -1 1 -1 -5 14 43 3 -2 1 6 8 7 56 25 15 13 5 25 16 -3 0 2 -0 0 0 0
2 1 -0 1 1 1 -0 1 1 1 -6 -2 1 5 -6 10 6 5 16 17 11 -5 14 14 14 13 8 10 -0 0 5 -2 -0
-1 2 2 2 0 -1 -1 -1 -2 -6 8 -4 -5 -6 0 -1 -9 -9 -2 2 56 39 5 5 12 11 7 9 14 -6 0 -0 0
-7 1 0 1 1 1 0 -1 -0 -3 -3 1 1 1 -0 -3 3 2 -3 2 -14 2 -4 -11 -0 -2 4 7 27 0 -6 -3 -2
1 -5 -3 2 1 -0 0 -1 -2 -4 -0 -4 -0 1 4 -9 6 9 -4 -13 7 4 0 -10 -1 -0 2 6 1 6 12 6 -1
1 1 -2 -4 -1 -1 -3 -3 1 -1 -1 -2 -7 4 1 4 4 -2 -0 1 1 2 -0 -5 -7 -5 -6 -2 2 2 3 12 6
-1 1 2 2 0 0 3 2 -2 -3 -2 0 -1 -6 -1 -6 3 -3 0 -1 -0 2 6 -0 -1 -2 -5 -8 -6 3 1 5 5
-0 2 1 -1 -1 0 -1 1 0 2 -2 -1 -5 -3 -4 -2 -4 4 -9 6 -2 -1 -4 0 -1 -1 -1 -4 1 -6 -1 -4 4
Height
5787 5788 5790 5791 5792 5794 5794 5796 5798 5799 5801 5802 5804 5806 5807 5809 5810 5812 5814 5816 5817 5820 5821 5822 5824 5827 5828 5831 5834 5836 5840 5842 5844
5780 5782 5783 5785 5787 5789 5789 5792 5793 5795 5797 5798 5800 5802 5804 5805 5807 5809 5811 5813 5815 5817 5818 5819 5821 5824 5827 5829 5831 5834 5837 5840 5841
5773 5775 5777 5778 5780 5782 5783 5787 5788 5789 5792 5794 5796 5798 5800 5802 5803 5805 5808 5809 5811 5813 5814 5816 5819 5820 5824 5827 5829 5830 5834 5837 5839
5765 5768 5770 5771 5772 5774 5777 5780 5782 5785 5787 5789 5790 5791 5794 5796 5798 5801 5802 5805 5807 5809 5812 5813 5815 5818 5820 5824 5826 5828 5830 5833 5835
5756 5759 5763 5765 5766 5767 5770 5773 5775 5778 5780 5783 5784 5786 5788 5790 5793 5794 5798 5799 5801 5804 5806 5809 5810 5812 5816 5819 5822 5824 5826 5829 5831
5749 5751 5754 5756 5758 5762 5764 5766 5768 5770 5772 5776 5778 5779 5782 5783 5786 5788 5791 5793 5796 5798 5800 5803 5805 5807 5810 5813 5816 5819 5822 5824 5827
5740 5743 5745 5747 5750 5754 5757 5759 5761 5764 5765 5766 5768 5772 5774 5776 5778 5781 5784 5787 5789 5791 5795 5797 5799 5802 5804 5807 5811 5813 5816 5819 5822
5734 5736 5738 5740 5742 5744 5748 5751 5751 5754 5758 5760 5762 5765 5767 5770 5772 5774 5778 5781 5782 5785 5788 5790 5793 5796 5798 5801 5804 5808 5810 5813 5816
5728 5730 5731 5732 5733 5736 5739 5741 5743 5740 5747 5751 5754 5757 5760 5763 5765 5767 5768 5772 5775 5777 5781 5784 5787 5789 5791 5795 5797 5800 5803 5806 5809
5722 5723 5724 5724 5726 5728 5730 5732 5734 5736 5737 5741 5745 5750 5752 5754 5757 5759 5762 5763 5766 5770 5772 5776 5779 5782 5784 5788 5790 5792 5795 5798 5802
5715 5716 5717 5718 5718 5720 5722 5723 5726 5728 5731 5734 5738 5740 5742 5745 5748 5751 5754 5754 5756 5759 5762 5765 5768 5773 5776 5779 5781 5784 5787 5790 5793
5707 5707 5709 5710 5711 5711 5713 5715 5718 5722 5722 5725 5728 5731 5732 5734 5738 5743 5735 5746 5748 5751 5752 5756 5758 5761 5766 5769 5773 5776 5779 5782 5785
5702 5701 5701 5703 5704 5705 5705 5706 5707 5710 5711 5709 5714 5719 5724 5724 5726 5731 5735 5725 5733 5737 5741 5745 5748 5750 5753 5758 5762 5766 5770 5774 5777
5697 5695 5695 5694 5695 5696 5697 5698 5698 5700 5702 5704 5705 5707 5710 5711 5712 5716 5721 5720 5723 5727 5729 5733 5737 5739 5743 5746 5749 5755 5760 5763 5768
5692 5690 5688 5687 5687 5687 5688 5689 5690 5691 5693 5693 5695 5697 5701 5701 5701 5702 5704 5705 5701 5710 5713 5718 5724 5727 5730 5735 5738 5742 5747 5753 5757
5684 5683 5682 5681 5680 5679 5679 5679 5680 5682 5683 5684 5685 5687 5689 5690 5692 5693 5694 5695 5693 5697 5700 5704 5708 5713 5718 5722 5726 5729 5734 5741 5746
5675 5674 5673 5673 5672 5671 5670 5670 5670 5671 5672 5673 5674 5677 5677 5679 5680 5676 5676 5681 5683 5687 5691 5693 5696 5700 5705 5707 5712 5718 5724 5730 5735
5668 5666 5665 5664 5663 5662 5661 5661 5660 5661 5661 5662 5663 5664 5666 5664 5665 5666 5668 5671 5672 5673 5676 5681 5685 5687 5689 5693 5699 5705 5711 5716 5720
5657 5655 5654 5654 5654 5653 5652 5651 5650 5651 5651 5651 5651 5652 5652 5652 5652 5652 5654 5655 5658 5660 5662 5665 5669 5672 5677 5681 5687 5693 5698 5700 5705
5647 5645 5643 5643 5643 5642 5642 5641 5640 5639 5639 5639 5639 5641 5640 5639 5639 5639 5638 5641 5641 5642 5646 5649 5653 5656 5662 5667 5674 5677 5682 5685 5690